DMSP 5D-2 F13 DEB, 42259

Orbit data source: Space-Track

DMSP 5D-2 F13 DEB, 42259 is space debris in SSO originally from a launch on Fri, 24 Mar 1995 UTC launched from the Air Force Western Test Range (AFWTR). Debris objects in space refer to the collection of defunct objects orbiting the Earth. Examples of debris include non-operational satellites, rocket bodies, and fragments generated from explosions, collisions, or faulty payload assembly.

Loading next visibility...
Identifier
42259, 1995-015FZ
Orbit
SSO
Country
Flag of USUS
Related business
Manufacturer
Unknown
Mission
Spacecraft
Bus & Motor
Unknown
Mass
Unknown
Launch date (UTC)
1995-03-24 (31 years ago)
Launch vehicle
Unknown
Launch site
Air Force Western Test Range (AFWTR)
Object type
Payload
Rocket body
Debris
Shape & HBR
Unknown shape, 0.1 m
Radar Cross Section
Small (<0.1 m²)

Expand to show TLE details & history
Last TLE update: 10 hours ago

TLE from 10 hours ago
0 DMSP 5D-2 F13 DEB
1 42259U 95015FZ  26118.82148628  .00003538  00000-0  12125-2 0  9991
2 42259  98.6342 153.5645 0011306  70.8383 289.4026 14.36786337554053
Epoch: 2026-04-28T19:42Z
TLE epoch observation values (Epoch: 2026-04-28T19:42:56.414Z)
Latitude
-0.00001°
Longitude
1.03815°
Altitude
769.399 km
Speed
7.471 km/s
True Right ascension
10h 14m 15s
True Declination
0° 00' 00"
Sunlit
Object was in daylight at epoch
Visualization orbit readout
Latitude
Unknown
Longitude
Unknown
Altitude
Unknown
Speed
Unknown
Apparent Right ascension
Unknown
Apparent Declination
Unknown
Sunlit
N/A
Visualization observer readout
Local Sidereal Time
13:08:20
Azimuth
Unknown
Elevation
Unknown
Doppler factor
Unknown
Orbital elements
Apogee altitude
774.346 km
Perigee altitude
758.191 km
Semi-major axis
7,144.406 km
Eccentricity
0.00113
Inclination
98.6342°
RAAN
153.5645°
Arg. of periapsis
70.8383°
True anomaly
289.28034°
Mean anomaly
289.4026°
Eccentric anomaly
289.34148°
Mean motion
3.59413 °/min
Orbital period
100.16 mins
BSTAR
0.0012125
Loading maneuver chart data...
Computing Atmospheric mass density...

Documentation

Showing up to 5 results
|